This is the latest recevied weather packets stored in our database for station/object N8HKU-5. If no packets are shown the sender has not sent any weather packets the latest 10 day(s).
| Time | Temp. | Humidity | Pressure | Rain* | Wind** | Luminosity | Snow |
|---|---|---|---|---|---|---|---|
| 1777993954 | 13.89° C | 57% | 1004.3 hPa | 0 mm | - | - | - |
| 1777993353 | 14.44° C | 56% | 1004 hPa | 0 mm | - | - | - |
| 1777992754 | 14.44° C | 54% | 1003.9 hPa | 0 mm | - | - | - |
| 1777992154 | 14.44° C | 55% | 1003.8 hPa | 0 mm | - | - | - |
| 1777991554 | 15° C | 54% | 1003.8 hPa | 0 mm | - | - | - |
| 1777990953 | 15.56° C | 55% | 1003.5 hPa | 0 mm | - | - | - |
| 1777990354 | 15.56° C | 56% | 1003.3 hPa | 0 mm | - | - | - |
| 1777989753 | 15° C | 59% | 1003.3 hPa | 0 mm | - | - | - |
| 1777989154 | 15° C | 64% | 1003.1 hPa | 0 mm | - | - | - |
| 1777988553 | 15° C | 69% | 1002.9 hPa | 0 mm | - | - | - |
| 1777987953 | 14.44° C | 72% | 1002.4 hPa | 0 mm | - | - | - |
| 1777987354 | 14.44° C | 74% | 1002.3 hPa | 0 mm | - | - | - |
| 1777986753 | 14.44° C | 72% | 1002.7 hPa | 0 mm | - | - | - |
| 1777986154 | 15° C | 76% | 1002.1 hPa | 0 mm | - | - | - |
| 1777985553 | 14.44° C | 78% | 1001.5 hPa | 0 mm | - | - | - |
| 1777984953 | 14.44° C | 80% | 1001.5 hPa | 0 mm | - | - | - |
| 1777984353 | 13.89° C | 82% | 1001.6 hPa | 0 mm | - | - | - |
| 1777983753 | 13.89° C | 85% | 1001.7 hPa | 0 mm | - | - | - |
| 1777983154 | 13.33° C | 88% | 1001.9 hPa | 0 mm | - | - | - |
| 1777982553 | 13.33° C | 89% | 1001.7 hPa | 0 mm | - | - | - |
| 1777981953 | 13.33° C | 90% | 1001.8 hPa | 0 mm | - | - | - |
| 1777981356 | 13.33° C | 90% | 1001.7 hPa | 0 mm | - | - | - |
| 1777980753 | 12.78° C | 90% | 1001.4 hPa | 0 mm | - | - | - |
| 1777980153 | 12.78° C | 90% | 1001.2 hPa | 0 mm | - | - | - |
| 1777979554 | 12.78° C | 90% | 1000.9 hPa | 0 mm | - | - | - |
* Rain latest hour (hover to see other rain measurements)
** Current wind speed in m/s (hover to see current wind gust speed)